Terug naar catalogus

ISIS 1 DEB

ActiefPO
NORAD 31999·DEBRIS·🇨🇦 Canada

Gelanceerd Jan 30, 1969 vanaf Vandenberg Space Force Base

Loading…

Volgende Passages (komende 24 uur)

TLE

VersSource: Space-Track

Epoch: Sep 13, 2026, 11:16 UTC

1 31999U 69009C   26256.47013869  .00006167  00000-0  30452-2 0  9990
2 31999  88.3779  79.5215 1213883 268.3179  77.8851 12.37444036819813

Volg ISIS 1 DEB in realtime met AllMySat

Download on the App Store